Retour au catalogue

STARLINK-30940

ActifCommunicationsVLEO
NORAD 58409·PAYLOAD·🇺🇸 United States

Lancé Nov 22, 2023 depuis Cape Canaveral Space Force Station

Loading…

Prochains Passages (prochaines 24 heures)

TLE

FraisSource: CelesTrak SupGP

Époque: Sep 15, 2026, 01:40 UTC

1 58409C 23180H   26258.06993056  .00021494  00000+0  77840-3 0  2587
2 58409  43.0009 277.9493 0001759 268.5284 132.8591 15.27571963    18

Suivez STARLINK-30940 en temps réel avec AllMySat

Download on the App Store